This is the latest recevied weather packets stored in our database for station/object KD9JJA. If no packets are shown the sender has not sent any weather packets the latest 10 day(s).
| Time | Temp. | Humidity | Pressure | Rain* | Wind** | Luminosity | Snow |
|---|---|---|---|---|---|---|---|
| 1777920598 | 18.89° C | 89% | 1008.8 hPa | 0 mm | - | 227 W/m² | - |
| 1777920293 | 18.33° C | 92% | 1008.9 hPa | 0 mm | - | 304 W/m² | - |
| 1777919989 | 17.78° C | 93% | 1009.2 hPa | 0 mm | - | 185 W/m² | - |
| 1777919687 | 17.78° C | 93% | 1009.5 hPa | 0 mm | - | 190 W/m² | - |
| 1777919384 | 17.78° C | 92% | 1009.6 hPa | 0 mm | - | 132 W/m² | - |
| 1777919081 | 17.22° C | 87% | 1009.8 hPa | 0 mm | - | 62 W/m² | - |
| 1777918779 | 17.22° C | 89% | 1009.8 hPa | 0 mm | - | 44 W/m² | - |
| 1777918475 | 17.22° C | 91% | 1010.2 hPa | 0 mm | - | 61 W/m² | - |
| 1777918174 | 17.22° C | 90% | 1009.8 hPa | 0 mm | - | 42 W/m² | - |
| 1777917873 | 17.22° C | 89% | 1010 hPa | 0 mm | - | 46 W/m² | - |
| 1777917570 | 17.22° C | 87% | 1010.1 hPa | 0 mm | - | 47 W/m² | - |
| 1777917267 | 16.67° C | 88% | 1009.9 hPa | 0 mm | - | 57 W/m² | - |
| 1777916965 | 16.67° C | 92% | 1009.8 hPa | 0 mm | - | 34 W/m² | - |
| 1777916662 | 16.67° C | 93% | 1009.9 hPa | 0 mm | - | 40 W/m² | - |
| 1777916360 | 16.67° C | 89% | 1009.6 hPa | 0 mm | - | 39 W/m² | - |
| 1777916056 | 16.67° C | 91% | 1009.6 hPa | 0 mm | - | 23 W/m² | - |
| 1777915753 | 16.67° C | 90% | 1009.7 hPa | 1.27 mm | - | 16 W/m² | - |
| 1777915449 | 16.67° C | 92% | 1009.9 hPa | 6.1 mm | - | 10 W/m² | - |
| 1777915146 | 16.11° C | 92% | 1009.9 hPa | 6.1 mm | - | 8 W/m² | - |
| 1777914843 | 17.22° C | 92% | 1010.3 hPa | 3.05 mm | - | 7 W/m² | - |
| 1777914540 | 17.78° C | 88% | 1010 hPa | 1.78 mm | - | 9 W/m² | - |
| 1777914236 | 18.33° C | 80% | 1009.4 hPa | 0 mm | - | 12 W/m² | - |
| 1777913933 | 18.89° C | 75% | 1009.6 hPa | 0 mm | - | 11 W/m² | - |
| 1777913629 | 18.89° C | 74% | 1010 hPa | 0 mm | - | 6 W/m² | - |
| 1777913326 | 18.89° C | 71% | 1009.6 hPa | 0 mm | - | 12 W/m² | - |
* Rain latest hour (hover to see other rain measurements)
** Current wind speed in m/s (hover to see current wind gust speed)